Weather History for KDAG - September, 2013

Change the Weather History Date:

Tuesday, September 3, 2013

  Actual Average Record
Temperature  
Mean Temperature 89 °F -  
Max Temperature 100 °F 99 °F 110 °F (1948)
Min Temperature 78 °F 70 °F 57 °F (1964)
Cooling Degree Days 24    
Growing Degree Days 39 (Base 50)    
Moisture  
Dew Point 58 °F    
Average Humidity 39    
Maximum Humidity 60    
Minimum Humidity 21    
Precipitation  
Precipitation 0.51 in - - ()
Sea Level Pressure  
Sea Level Pressure 29.84 in    
Wind  
Wind Speed 8 mph (WNW)    
Max Wind Speed 28 mph    
Max Gust Speed 44 mph    
Visibility 9 miles    
Events Rain , Thunderstorm    
Averages and records for this station are not official NWS values.
T = Trace of Precipitation, MM = Missing Value Source: NWS Daily Summary

Daily Weather History Graph

Daily Weather History Graph

Search for Another Location

Airport or City:

Trip Planner

Search our weather history database for the weather conditions in past years. The results will help you decide how hot, cold, wet, or windy it might be!

Date:

Astronomy

Sep. 03, 2013 Rise Set
Actual Time 6:21 AM PDT 7:10 PM PDT
Civil Twilight 5:55 AM PDT 7:36 PM PDT
Nautical Twilight 5:25 AM PDT 8:06 PM PDT
Astronomical Twilight 4:54 AM PDT 8:37 PM PDT
Moon 4:41 AM PDT (9/3) 5:59 PM PDT (9/3)
Length of Visible Light 13h 40m
Length of Day
12h 48m
Waning Crescent, 3% of the Moon is Illuminated
Sep 3
Waning Crescent
Sep 5
New
Sep 12
First Quarter
Sep 19
Full
Sep 26
Last Quarter

Hourly Weather History & Observations

Time (PDT) Temp. Heat Index Dew Point Humidity Pressure Visibility Wind Dir Wind Speed Gust Speed Precip Events Conditions
12:50 AM 84.9 °F 83.7 °F 55.9 °F 37% 29.82 in 10.0 mi SW 8.1 mph - N/A   Clear
1:50 AM 82.9 °F 82.4 °F 57.0 °F 41% 29.82 in 10.0 mi West 9.2 mph - N/A   Clear
2:50 AM 82.0 °F 81.6 °F 55.9 °F 41% 29.82 in 10.0 mi WNW 5.8 mph - N/A   Clear
3:50 AM 82.9 °F 82.4 °F 57.0 °F 41% 29.82 in 10.0 mi West 6.9 mph - N/A   Clear
4:50 AM 82.0 °F 81.7 °F 57.0 °F 42% 29.82 in 10.0 mi West 5.8 mph - N/A   Clear
5:50 AM 81.0 °F 80.8 °F 55.9 °F 42% 29.83 in 10.0 mi WSW 6.9 mph - N/A   Clear
6:50 AM 80.1 °F 80.2 °F 55.9 °F 43% 29.85 in 10.0 mi NW 3.5 mph - N/A   Clear
7:50 AM 82.9 °F 81.9 °F 54.0 °F 37% 29.87 in 10.0 mi West 5.8 mph - N/A   Clear
8:50 AM 86.0 °F 84.2 °F 54.0 °F 33% 29.88 in 10.0 mi NNW 3.5 mph - N/A   Clear
9:50 AM 89.1 °F 86.7 °F 53.1 °F 29% 29.88 in 10.0 mi Calm Calm - N/A   Clear
10:50 AM 93.0 °F 91.1 °F 55.0 °F 28% 29.88 in 10.0 mi ENE 5.8 mph - N/A   Clear
11:50 AM 96.1 °F 94.5 °F 55.9 °F 26% 29.86 in 10.0 mi East 6.9 mph - N/A   Clear
12:50 PM 98.1 °F 96.4 °F 55.0 °F 24% 29.83 in 10.0 mi Variable 5.8 mph - N/A   Clear
1:50 PM 99.0 °F 96.9 °F 54.0 °F 22% 29.81 in 10.0 mi Calm Calm - N/A   Clear
2:50 PM 99.0 °F 96.5 °F 53.1 °F 21% 29.78 in 10.0 mi Calm Calm - N/A   Clear
3:50 PM 100.0 °F 97.9 °F 54.0 °F 21% 29.76 in 10.0 mi North 3.5 mph - N/A   Scattered Clouds
3:59 PM 98.6 °F 96.4 °F 53.6 °F 22% 29.85 in 10.0 mi Calm Calm - N/A Thunderstorm Scattered Clouds
4:50 PM 91.0 °F 90.2 °F 59.0 °F 34% 29.78 in 10.0 mi West 21.9 mph 38.0 mph N/A Thunderstorm Thunderstorm
4:57 PM 82.4 °F 83.4 °F 62.6 °F 51% 29.92 in 1.8 mi NW 16.1 mph 43.7 mph 0.23 in Rain , Thunderstorm Heavy Thunderstorms and Rain
5:04 PM 78.8 °F - 62.6 °F 57% 29.87 in 1.0 mi North 27.6 mph 42.6 mph 0.49 in Rain , Thunderstorm Heavy Thunderstorms and Rain
5:08 PM 80.6 °F 81.5 °F 60.8 °F 51% 29.87 in 1.8 mi North 26.5 mph 42.6 mph 0.51 in Rain , Thunderstorm Heavy Thunderstorms and Rain
5:12 PM 82.4 °F 82.9 °F 60.8 °F 48% 29.87 in 4.0 mi NNE 27.6 mph 42.6 mph 0.51 in Rain , Thunderstorm Light Thunderstorms and Rain
5:50 PM 82.9 °F 83.3 °F 61.0 °F 47% 29.81 in 10.0 mi West 10.4 mph 16.1 mph 0.51 in Thunderstorm Thunderstorm
6:24 PM 87.8 °F 87.6 °F 60.8 °F 40% 29.87 in 10.0 mi SSW 4.6 mph - N/A   Clear
6:50 PM 87.1 °F 87.8 °F 63.0 °F 44% 29.78 in 10.0 mi SSE 4.6 mph - N/A   Clear
7:50 PM 84.0 °F 86.3 °F 66.0 °F 55% 29.80 in 10.0 mi WNW 8.1 mph - N/A   Clear
8:50 PM 82.0 °F 84.5 °F 66.9 °F 60% 29.83 in 10.0 mi West 9.2 mph - N/A   Clear
9:50 PM 84.0 °F 85.4 °F 64.0 °F 51% 29.84 in 10.0 mi Variable 4.6 mph - N/A   Clear
10:50 PM 82.9 °F 83.3 °F 61.0 °F 47% 29.85 in 10.0 mi WSW 9.2 mph - N/A   Clear
11:50 PM 84.0 °F 83.5 °F 57.9 °F 41% 29.85 in 10.0 mi WSW 8.1 mph - N/A   Clear